Regional Weather Roundup
Issued by NWS

Home | Current Version | Previous Version | Text Only | Print | Product List | Glossary Off
Versions: 1 2 3 4 5 6 7 8 9 10 11 12 13 14 15 16 17 18 19 20 21 22 23 24 25 26 27

000
ASUS45 KBOU 020107
RWRCO

WEATHER ROUNDUP FOR COLORADO
NATIONAL WEATHER SERVICE DENVER/BOULDER CO
700 PM MDT SUN MAY 01 2016

NOTE: "FAIR" INDICATES FEW OR NO CLOUDS BELOW 12000 FEET WITH NO
SIGNIFICANT WEATHER AND/OR OBSTRUCTIONS TO VISIBILITY.

COZ001>005-013-030-031-020200-
...NORTHWEST COLORADO...

CITY           SKY/WX    TMP DP  RH WIND       PRES   REMARKS
CRAIG          FAIR      53  26  35 E9        30.05R
HAYDEN         FAIR      52  23  32 E16       30.06S
MEEKER         CLOUDY    52  29  41 N16       30.05R
MOUNT WERNER   NOT AVBL
STEAMBOAT SPGS FAIR      47  24  40 NE16G26   30.08S
WALDEN         FAIR      34  19  55 NE18G29   30.16R WCI  23
$$

COZ006>008-011-020200-
...WEST CENTRAL VALLEYS...

CITY           SKY/WX    TMP DP  RH WIND       PRES   REMARKS
GRAND JUNCTION CLOUDY    55  35  47 E16       30.03R
MONTROSE       CLOUDY    49  34  56 E3        30.11R
EAGLE          PTSUNNY   52  28  40 CALM      30.08
RIFLE          LGT RAIN  52  34  50 E18G28    30.04R
DELTA          NOT AVBL
NUCLA          NOT AVBL
$$

COZ017>023-064>068-020200-
...SOUTHWEST COLORADO...

CITY           SKY/WX    TMP DP  RH WIND       PRES   REMARKS
DURANGO        PTSUNNY   41  36  82 E12       30.14R
CORTEZ         CLOUDY    43  38  82 S8        30.11R
PAGOSA SPRINGS CLOUDY    37  35  94 CALM      30.17S
TELLURIDE      CLOUDY    35  33  94 W8        30.15R WCI  28
WOLF CREEK PAS HVY SNOW  21  21 100 MISG      30.23S VSB<1/4
$$

COZ009-010-012-014-032>034-037-058>063-020200-
...CENTRAL COLORADO...

CITY           SKY/WX    TMP DP  RH WIND       PRES   REMARKS
ASPEN          CLOUDY    43  25  49 E10G17    30.10R
BUENA VISTA    LGT SNOW  32  30  93 CALM      30.23S
COPPER MTN     NOT AVBL
BERTHOUD PASS  CLOUDY    14   5  67 MISG      30.22S
COTTONWOOD PAS SNOW      30  28  93 E8        30.22F VSB 1/2 WCI  23
GUNNISON       PTSUNNY   39  23  52 E14       30.16S
KREMMLING      FAIR      43  19  39 E14G23    30.13R
LEADVILLE      LGT SNOW  24  24 100 S14       30.19R VSB 1   WCI  12
MONARCH PASS   CLOUDY    19  16  86 MISG      30.30R
SALIDA         CLOUDY    35  30  82 E10       30.30S WCI  28
SUNLIGHT       CLOUDY    32  32 100 CALM      30.20S
WILKERSON PASS LGT SNOW N/A N/A N/A E3        30.26S
$$

COZ069>075-020200-
...SAN LUIS VALLEY/SANGRE DE CRISTO MOUNTAINS...

CITY           SKY/WX    TMP DP  RH WIND       PRES   REMARKS
ALAMOSA        CLOUDY    37  25  61 E20       30.16R
LA VETA PASS   FOG       21  19  93 MISG      30.23S VSB 1/4
SAGUACHE       CLOUDY    37  30  75 S7        30.17S
$$

COZ035-036-038>040-020200-
...NORTHERN COLORADO FRONT RANGE...

CITY           SKY/WX    TMP DP  RH WIND       PRES   REMARKS
DENVER INTL AP MOCLDY    42  27  55 N3        30.27S
DMNS CITY PARK   N/A     40  28  61 N5G13     30.27S
AURORA         FAIR      39  31  73 CALM      30.28S
FRONT RANGE AP MOCLDY    39  27  60 NW3       30.27F
ERIE MUNI ARPT MOCLDY    42  31  65 CALM      30.28S
BOULDER MUN AP CLOUDY    41  30  65 CALM      30.27S
CENTENNIAL     MOCLDY    37  29  72 CALM      30.27S
BROOMFIELD     MOCLDY    39  32  75 CALM      30.28S
FORT COLLINS   FAIR      43  25  49 CALM      30.28F
LONGMONT       CLOUDY    45  30  56 S3        30.29S HAZE
$$

COZ041-046-047-076>085-087-088-020200-
...PIKES PEAK/PALMER DIVIDE AND SOUTHERN FOOTHILLS...

CITY           SKY/WX    TMP DP  RH WIND       PRES   REMARKS
COLO. SPRINGS  CLOUDY    37  27  67 N10       30.27S
A. F. ACADEMY  MOCLDY    32  28  86 N10       30.26S WCI  24
SCHRIEVER AFB  NOT AVBL
ELLICOTT       NOT AVBL
FALCON         CLOUDY    33  27  80 N14G20    30.26S WCI  23
FORT CARSON    MIX PCPN  37  28  70 N9        30.26R
LIMON          FAIR      36  28  73 NW8       30.26F
MONUMENT HILL  CLOUDY    30  28  93 NW5       30.28S WCI  25
TRINIDAD       LGT RAIN  36  32  85 N7        30.27R
$$

COZ042>045-048>051-090-091-020200-
...NORTHEAST COLORADO...

CITY           SKY/WX    TMP DP  RH WIND       PRES   REMARKS
GREELEY ARPT   CLOUDY    45  28  53 W6        30.27F
AKRON          FAIR      38  29  70 NE9       30.26S
BURLINGTON     CLOUDY    44  31  60 N14       30.23S
WRAY           NOT AVBL
STERLING       MOCLDY    46  30  53 E7        30.26S
HOLYOKE        NOT AVBL
FORT MORGAN    FAIR      46  23  41 N7        30.26F
$$

COZ086-089-092>099-020200-
...SOUTHEAST COLORADO...

CITY           SKY/WX    TMP DP  RH WIND       PRES   REMARKS
PUEBLO         CLOUDY    44  32  62 NE8       30.28R
LA JUNTA       CLOUDY    46  29  51 N9        30.25S
LAMAR          CLOUDY    47  34  60 NE7       30.22R
SPRINGFIELD      N/A     39  35  86 N9        30.23R
$$




USA.gov is the U.S. government's official web portal to all federal, state and local government web resources and services.